This is the latest recevied weather packets stored in our database for station/object N8RJH-13. If no packets are shown the sender has not sent any weather packets the latest 10 day(s).
| Time | Temp. | Humidity | Pressure | Rain* | Wind** | Luminosity | Snow |
|---|---|---|---|---|---|---|---|
| 1787853956 | 28.89° C | 79% | 1017.8 hPa | - | - | - | - |
| 1787853343 | 28.89° C | 78% | 1017.8 hPa | - | - | - | - |
| 1787852736 | 29.44° C | 77% | 1017.9 hPa | - | - | - | - |
| 1787852106 | 28.89° C | 78% | 1017.9 hPa | - | - | - | - |
| 1787851496 | 28.89° C | 80% | 1018.1 hPa | - | - | - | - |
| 1787850877 | 28.33° C | 79% | 1018.4 hPa | - | - | - | - |
| 1787850236 | 28.33° C | 80% | 1018.4 hPa | - | - | - | - |
| 1787849607 | 28.33° C | 80% | 1018.4 hPa | - | - | - | - |
| 1787848976 | 27.78° C | 82% | 1018.6 hPa | - | - | - | - |
| 1787848356 | 27.78° C | 83% | 1018.8 hPa | - | - | - | - |
| 1787847716 | 27.22° C | 85% | 1019.1 hPa | - | - | - | - |
| 1787847106 | 27.22° C | 84% | 1019 hPa | - | - | - | - |
| 1787846496 | 26.67° C | 86% | 1019 hPa | - | - | - | - |
| 1787845856 | 26.67° C | 86% | 1018.9 hPa | - | - | - | - |
| 1787845226 | 26.67° C | 87% | 1018.8 hPa | - | - | - | - |
| 1787844616 | 26.67° C | 88% | 1018.9 hPa | - | - | - | - |
| 1787843996 | 26.11° C | 90% | 1019.1 hPa | - | - | - | - |
| 1787843372 | 25.56° C | 90% | 1018.8 hPa | - | - | - | - |
| 1787842746 | 25.56° C | 91% | 1019.1 hPa | - | - | - | - |
| 1787842136 | 25° C | 92% | 1019 hPa | - | - | - | - |
| 1787841503 | 25° C | 93% | 1019 hPa | - | - | - | - |
| 1787840877 | 25° C | 93% | 1019.3 hPa | - | - | - | - |
| 1787840253 | 24.44° C | 93% | 1019 hPa | - | - | - | - |
| 1787839616 | 24.44° C | 94% | 1018.9 hPa | - | - | - | - |
| 1787839005 | 24.44° C | 94% | 1018.8 hPa | - | - | - | - |
* Rain since midnight (hover to see other rain measurements)
** Current wind speed in m/s (hover to see current wind gust speed)